[[{"header":{"parameterUnit":"m.s-1","parameterCategory":1,"la1":30.2991,"la2":30.254,"lo1":-89.0895,"lo2":-89.0444,"dx":0.0017,"dy":0.0017,"nx":28,"ny":28,"refTime":"2023-02-06T09:00:00:Z","depth":0,"parameterNumber":2,"parameterNumberName":"U-component_of_WINDS"},"data":[0,0,0,0,0,0,0,0,0,0,0,0,0,0,0,0,0,0,0,0,0,0,0,0,0,0,0,0,0,0,0,0,0,0,0,0,0,0,0,0,0,0,0,0,0,0,0,0,0,0,0,0,0,0,0,0,0,0,-3.4459,-3.446,0,-3.4534,-3.4535,-3.4536,-3.4474,-3.4471,-3.4469,-3.4466,-3.4545,-3.455,-3.4554,0,0,0,0,0,0,0,0,0,0,0,0,0,-3.4265,-3.4269,-3.4459,-3.446,-3.4461,-3.4534,-3.4535,-3.4536,-3.4475,-3.4471,-3.4468,-3.4465,-3.4544,-3.4549,-3.4555,0,0,0,0,0,0,0,0,0,0,0,0,0,-3.4346,-3.4271,-3.4459,-3.4439,-3.4438,-3.4534,-3.4535,-3.4536,-3.4475,-3.4471,-3.4467,-3.4464,-3.4542,-3.4549,-3.4555,-3.4676,0,0,-3.4576,-3.4579,0,0,0,0,0,0,0,0,-3.4342,-3.4353,-3.4441,-3.4441,-3.444,-3.4491,-3.4496,-3.4583,-3.4476,-3.4461,-3.4466,-3.4462,-3.4531,-3.4538,-3.4561,-3.4679,-3.4683,-3.4577,-3.4581,-3.4584,-3.4586,0,0,0,0,0,0,0,-3.4336,-3.435,-3.4489,-3.4442,-3.4442,-3.4427,-3.4434,-3.4512,-3.4517,-3.4462,-3.4458,-3.4467,-3.4529,-3.4554,-3.4562,-3.4684,-3.4577,-3.4583,-3.4587,-3.4589,-3.4906,-3.491,0,0,0,0,0,0,-3.4332,-3.4345,-3.4486,-3.4491,-3.438,-3.4434,-3.4442,-3.4478,-3.4516,-3.4518,-3.4471,-3.4464,-3.4545,-3.4554,-3.4565,-3.4708,-3.4584,-3.459,-3.4594,-3.4901,-3.4907,-3.4911,0,0,0,0,0,0,-3.4328,-3.4345,-3.4483,-3.4417,-3.4434,-3.4441,-3.4483,-3.4482,-3.4507,-3.4522,-3.4523,-3.4495,-3.4542,-3.4555,-3.4648,-3.471,-3.4593,-3.4599,-3.4896,-3.4903,-3.4909,-3.4996,0,0,0,0,0,0,-3.4323,-3.4344,-3.4389,-3.4419,-3.4437,-3.4566,-3.4487,-3.4486,-3.4518,-3.4511,-3.4545,-3.4547,-3.454,-3.4639,-3.4655,-3.4717,-3.4605,-3.4891,-3.4899,-3.4907,-3.4988,-3.5005,-3.5019,0,0,0,0,0,-3.4316,-3.4411,-3.4392,-3.4409,-3.4494,-3.4569,-3.458,-3.4569,-3.4523,-3.4569,-3.458,-3.4546,-3.4701,-3.4649,-3.4667,-3.4732,-3.4887,-3.4897,-3.4906,-3.4981,-3.5001,-3.5019,0,0,0,0,0,0,-3.4389,-3.4414,-3.4393,-3.45,-3.4533,-3.4558,-3.4616,-3.4591,-3.4638,-3.4628,-3.4613,-3.4622,-3.472,-3.4735,-3.4677,-3.4851,-3.4787,-3.4801,-3.4837,-3.4857,-3.4872,-3.4867,-3.461,0,0,0,0,0,-3.4418,-3.4476,-3.4495,-3.4588,-3.4605,-3.4608,-3.464,-3.4629,-3.4662,-3.4676,-3.4693,-3.4728,-3.4784,-3.4821,-3.4874,-3.499,-3.4997,-3.5044,-3.5059,-3.5072,-3.5084,-3.5148,-3.5169,-3.4943,-3.4943,-3.4943,0,0,-3.4477,-3.4498,-3.4536,-3.4603,-3.4627,-3.4689,-3.462,-3.4688,-3.4734,-3.4687,-3.4776,-3.479,-3.4827,-3.4933,-3.498,-3.4948,-3.5148,-3.5085,-3.5095,-3.51,-3.516,-3.5181,-3.52,-3.495,-3.4949,-3.4948,0,0,-3.4617,-3.4638,-3.4718,-3.4744,-3.4781,-3.4782,-3.4801,-3.4831,-3.4838,-3.4928,-3.4894,-3.4949,-3.5046,-3.5074,-3.5101,-3.5253,-3.5225,-3.5271,-3.5353,-3.5415,-3.5433,-3.5449,-3.5504,-3.5523,-3.5283,-3.5283,-3.5284,0,-3.4686,-3.4777,-3.4762,-3.4833,-3.4864,-3.4824,-3.4905,-3.4931,-3.4984,-3.5007,-3.497,-3.5092,-3.5114,-3.5226,-3.5264,-3.5287,-3.5309,-3.5267,-3.5432,-3.5447,-3.5462,-3.5514,-3.5534,-3.5289,-3.5288,-3.5288,-3.5287,0,-3.4861,-3.4924,-3.4984,-3.5036,-3.5074,-3.5149,-3.5148,-3.5188,-3.5174,-3.5179,-3.5271,-3.5297,-3.5354,-3.538,-3.5367,-3.5491,-3.547,-3.5433,-3.5369,-3.5489,-3.5537,-3.5557,-3.5296,-3.5294,-3.5293,-3.5292,0,0,-3.5047,-3.5091,-3.5113,-3.5136,-3.5175,-3.5224,-3.5299,-3.5354,-3.539,-3.5428,-3.549,-3.5574,-3.554,-3.5571,-3.5561,-3.5616,-3.5735,-3.5572,-3.5573,-3.5602,-3.5874,-3.5902,-3.5925,-3.5717,-3.5721,-3.5724,-3.5871,0,-3.5189,-3.5317,-3.5307,-3.5429,-3.5489,-3.5452,-3.5517,-3.5549,-3.5556,-3.5608,-3.5617,-3.5677,-3.5627,-3.5646,-3.5698,-3.571,-3.579,-3.5699,-3.5776,-3.5779,-3.5767,-3.595,-3.598,-3.6117,-3.589,-3.5893,-3.5896,0,-3.5371,-3.5415,-3.5543,-3.5573,-3.5598,-3.5656,-3.5707,-3.5757,-3.5792,-3.5794,-3.583,-3.5811,-3.5887,-3.5821,-3.5927,-3.5865,-3.5896,-3.5907,-3.5912,-3.5918,-3.5844,-3.5962,-3.6161,-3.6182,-3.5925,-3.5923,-3.5921,0,-3.5495,-3.5586,-3.5674,-3.5696,-3.5733,-3.5776,-3.5793,-3.5825,-3.5859,-3.5904,-3.5927,-3.598,-3.601,-3.6052,-3.6049,-3.6001,-3.6156,-3.609,-3.6161,-3.6161,-3.6195,-3.6192,-3.6401,-3.6215,-3.6215,-3.6214,-3.6214,0,-3.5653,-3.5733,-3.5731,-3.5785,-3.5874,-3.5862,-3.5951,-3.5964,-3.5993,-3.605,-3.6022,-3.6076,-3.6068,-3.6124,-3.6122,-3.621,-3.6223,-3.6227,-3.6226,-3.623,-3.623,-3.625,-3.624,-3.622,-3.6219,-3.6217,-3.6217,0,-3.5806,-3.5808,-3.5902,-3.593,-3.5939,-3.6003,-3.6028,-3.608,-3.6086,-3.6158,-3.6175,-3.6184,-3.6248,-3.6249,-3.6321,-3.632,-3.6428,-3.6416,-3.6416,-3.6413,-3.6484,-3.6478,-3.6714,-3.6744,-3.6538,-3.654,-3.6542,0,-3.5907,-3.5968,-3.6003,-3.6039,-3.6059,-3.6117,-3.6153,-3.6144,-3.6182,-3.6228,-3.6275,-3.6335,-3.6383,-3.6487,-3.6501,-3.6557,-3.6545,-3.6624,-3.6554,-3.6556,-3.6547,-3.6543,-3.655,-3.6638,-3.664,-3.6642,-3.6644,0,-3.6087,-3.6085,-3.6136,-3.6188,-3.6231,-3.6272,-3.631,-3.6341,-3.6337,-3.6381,-3.6446,-3.6483,-3.6557,-3.6618,-3.6673,-3.6692,-3.6668,-3.6666,-3.6685,-3.669,-3.6688,-3.669,-3.6454,-3.6661,-3.6659,-3.6658,-3.6657,-3.6656,-3.6217,-3.6269,-3.6302,-3.6361,-3.6388,-3.6424,-3.6475,-3.6487,-3.654,-3.66,-3.6592,-3.6664,-3.6699,-3.6769,-3.6794,-3.685,-3.6823,-3.6851,-3.6858,-3.6865,-3.6873,-3.6679,-3.686,-3.686,-3.6859,-3.6859,-3.6859,0,-3.6395,-3.6415,-3.6469,-3.6522,-3.6569,-3.6542,-3.6582,-3.6623,-3.6687,-3.6721,-3.6769,-3.6844,-3.6903,-3.6922,-3.698,-3.7022,-3.7013,-3.7037,-3.7034,-3.7039,-3.6894,-3.6872,-3.7044,-3.7044,-3.7044,-3.7044,-3.7044,-3.7044,-3.6493,-3.658,-3.6583,-3.6684,-3.6703,-3.6773,-3.6799,-3.6832,-3.686,-3.6944,-3.6993,-3.7005,-3.7034,-3.7094,-3.7148,-3.7152,-3.7174,-3.7204,-3.7204,-3.7068,-3.7049,-3.7032,-3.701,-3.7209,-3.7209,-3.7344,-3.7345,-3.7346]},{"header":{"parameterUnit":"m.s-1","parameterCategory":1,"la1":30.2991,"la2":30.254,"lo1":-89.0895,"lo2":-89.0444,"dx":0.0017,"dy":0.0017,"nx":28,"ny":28,"refTime":"2023-02-06T09:00:00:Z","depth":0,"parameterNumber":3,"parameterNumberName":"V-component_of_WINDS"},"data":[0,0,0,0,0,0,0,0,0,0,0,0,0,0,0,0,0,0,0,0,0,0,0,0,0,0,0,0,0,0,0,0,0,0,0,0,0,0,0,0,0,0,0,0,0,0,0,0,0,0,0,0,0,0,0,0,0,0,0.9965,0.9966,0,1.0083,1.0084,1.0086,1.0112,1.0111,1.0111,1.011,1.0234,1.0238,1.0242,0,0,0,0,0,0,0,0,0,0,0,0,0,0.9767,0.9771,0.9964,0.9966,0.9967,1.0083,1.0084,1.0086,1.0112,1.0111,1.011,1.0109,1.0233,1.0238,1.0243,0,0,0,0,0,0,0,0,0,0,0,0,0,0.9866,0.9772,0.9964,0.9994,0.9998,1.0082,1.0084,1.0086,1.0113,1.0111,1.011,1.0109,1.0231,1.0237,1.0243,1.0306,0,0,1.0262,1.0265,0,0,0,0,0,0,0,0,0.986,0.9873,0.9989,0.9992,0.9997,1.0081,1.006,1.016,1.0113,1.0069,1.011,1.0108,1.0185,1.0194,1.022,1.0312,1.0318,1.0263,1.0266,1.0269,1.0271,0,0,0,0,0,0,0,0.9853,0.9868,1.0011,0.999,0.9995,1.0004,1.0017,1.0079,1.0133,1.0073,1.0075,1.0089,1.0187,1.0214,1.0223,1.0319,1.0262,1.0268,1.0272,1.0274,1.0475,1.0476,0,0,0,0,0,0,0.9841,0.9862,1.0008,1.0015,0.9924,1.0009,1.0023,1.0056,1.0132,1.0142,1.009,1.009,1.0204,1.0215,1.0227,1.0309,1.0269,1.0275,1.0278,1.0473,1.0475,1.0477,0,0,0,0,0,0,0.9836,0.9853,1.0003,0.9939,0.9959,1.0013,1.005,1.0059,1.0086,1.0145,1.0155,1.0107,1.0203,1.0218,1.0287,1.0314,1.0277,1.0283,1.0471,1.0474,1.0476,1.0472,0,0,0,0,0,0,0.983,0.9852,0.9874,0.994,0.9962,1.0059,1.0052,1.0062,1.0096,1.0097,1.0164,1.0173,1.0203,1.0278,1.0293,1.0322,1.0288,1.0469,1.0472,1.0475,1.047,1.0474,1.0477,0,0,0,0,0,0.9823,0.9868,0.9875,0.9893,0.9992,1.0061,1.0074,1.0106,1.0097,1.0123,1.0161,1.0171,1.0308,1.0285,1.0302,1.0333,1.0468,1.0471,1.0475,1.0468,1.0473,1.0477,0,0,0,0,0,0,0.9805,0.9877,0.9886,0.9953,1.0,1.0065,1.0097,1.011,1.0161,1.016,1.02,1.0215,1.0282,1.0314,1.0287,1.04,1.0388,1.0395,1.0377,1.0382,1.0385,1.0377,1.0293,0,0,0,0,0,0.9809,0.9857,0.9918,0.9971,0.9995,1.0042,1.0073,1.0094,1.0145,1.0166,1.0209,1.026,1.0315,1.035,1.0403,1.0475,1.0492,1.0505,1.0508,1.0511,1.0517,1.0561,1.0569,1.0489,1.0489,1.0489,0,0,0.9817,0.9862,0.989,0.9969,1.0008,1.006,1.0058,1.0112,1.0151,1.0174,1.0242,1.0276,1.0336,1.0407,1.0441,1.0436,1.0543,1.0516,1.0517,1.0522,1.0566,1.0574,1.058,1.0492,1.0491,1.0491,0,0,0.9859,0.9896,0.9947,0.9987,1.0046,1.0078,1.009,1.0154,1.0177,1.0246,1.0265,1.0314,1.0406,1.0449,1.0482,1.0544,1.0557,1.0561,1.058,1.0623,1.0629,1.0635,1.066,1.0668,1.0567,1.0567,1.0567,0,0.9861,0.9938,0.9971,1.0025,1.0061,1.0084,1.0137,1.0174,1.0249,1.0274,1.0267,1.0387,1.0428,1.0511,1.0527,1.0552,1.057,1.0553,1.0625,1.0632,1.0638,1.0662,1.0671,1.0567,1.0567,1.0567,1.0567,0,0.9941,0.9994,1.0028,1.0099,1.0138,1.0191,1.0235,1.0271,1.029,1.0323,1.0395,1.0446,1.0512,1.0533,1.0551,1.0621,1.0616,1.0617,1.0606,1.0645,1.0669,1.0678,1.0567,1.0567,1.0567,1.0567,0,0,0.9972,1.0064,1.0076,1.011,1.0179,1.0222,1.0278,1.0342,1.0374,1.0425,1.0475,1.0555,1.0557,1.0595,1.0619,1.0656,1.0706,1.0653,1.0655,1.0664,1.079,1.079,1.08,1.0715,1.0717,1.0718,1.0786,0,1.0024,1.0123,1.0156,1.0239,1.0291,1.0316,1.0365,1.0414,1.0447,1.0498,1.0535,1.0592,1.0589,1.0613,1.0651,1.0692,1.0733,1.0687,1.0764,1.0767,1.075,1.0812,1.0812,1.0873,1.0795,1.0797,1.0798,0,1.0097,1.0151,1.0239,1.0305,1.0328,1.0371,1.0435,1.0482,1.0539,1.0561,1.0606,1.0628,1.069,1.0675,1.0763,1.0732,1.0765,1.0791,1.0794,1.0804,1.0785,1.0826,1.0893,1.0903,1.0812,1.0811,1.081,0,1.0116,1.0209,1.0275,1.0303,1.0381,1.0412,1.0446,1.0502,1.054,1.0596,1.0622,1.0684,1.0719,1.0768,1.0808,1.0792,1.0894,1.0881,1.0917,1.0916,1.0938,1.0936,1.1013,1.0956,1.0956,1.0956,1.0955,0,1.0171,1.0225,1.0284,1.0325,1.0387,1.0426,1.0487,1.0523,1.0574,1.0624,1.0649,1.0696,1.0744,1.0799,1.083,1.0901,1.0916,1.0937,1.0945,1.0936,1.0934,1.096,1.0957,1.0958,1.0958,1.0957,1.0957,0,1.0202,1.0243,1.0317,1.0386,1.0404,1.0447,1.0507,1.0549,1.0584,1.0648,1.0665,1.0721,1.0786,1.0831,1.0914,1.0936,1.1013,1.1019,1.0993,1.0998,1.1032,1.1029,1.1131,1.1147,1.1076,1.1077,1.1077,0,1.0235,1.0277,1.0351,1.0386,1.042,1.0476,1.0515,1.0556,1.0596,1.0667,1.0702,1.0769,1.0825,1.0929,1.0978,1.1043,1.1053,1.1084,1.1063,1.1054,1.1057,1.1055,1.1061,1.1088,1.1088,1.1089,1.1089,0,1.0291,1.031,1.0365,1.0428,1.0474,1.0526,1.0578,1.0606,1.0656,1.0701,1.0768,1.0811,1.0898,1.0966,1.1036,1.1074,1.1092,1.1095,1.1108,1.1099,1.1084,1.1096,1.1005,1.1093,1.1093,1.1092,1.1092,1.1092,1.0326,1.0366,1.0425,1.0486,1.053,1.0579,1.0623,1.0664,1.072,1.0793,1.0815,1.0886,1.0947,1.1043,1.1082,1.114,1.1138,1.1154,1.1159,1.1163,1.1165,1.1073,1.1153,1.1153,1.1153,1.1153,1.1153,0,1.0386,1.0425,1.0481,1.0554,1.0603,1.0614,1.0673,1.0714,1.0776,1.0831,1.0886,1.0965,1.1032,1.1087,1.1157,1.1193,1.1203,1.121,1.1209,1.1218,1.1162,1.1146,1.1201,1.1201,1.1201,1.1201,1.1201,1.1201,1.0423,1.0492,1.0519,1.0612,1.0652,1.0721,1.0754,1.0801,1.0845,1.0932,1.0988,1.1023,1.108,1.1154,1.1217,1.1232,1.1258,1.1264,1.1281,1.1227,1.1222,1.1217,1.1202,1.1268,1.1268,1.1333,1.1333,1.1334]}]]